Regional Weather Roundup
Issued by NWS Kansas City/Pleasant Hill, MO

Home | Current Version | Previous Version | Graphics & Text | Print | Product List | Glossary Off
Versions: 1 2 3 4 5 6 7 8 9 10 11 12 13 14 15 16 17 18 19 20 21 22 23 24 25 26 27 28 29 30 31 32 33 34 35 36 37 38 39 40 41 42 43 44 45 46 47 48 49 50

000
ASUS43 KEAX 281810
RWREAX

WEATHER ROUNDUP FOR EASTERN KANSAS AND NORTHWEST MISSOURI
NATIONAL WEATHER SERVICE KANSAS CITY/PLEASANT HILL MO
100 PM CDT FRI AUG 28 2015

KSZ040-057-103>105-MOZ028-029-037-043-281900-
...KANSAS CITY METROPOLITAN AREA...

CITY           SKY/WX    TMP DP  RH WIND       PRES   REMARKS
K.C. INTL      PTSUNNY   74  65  73 S15G21    29.95F
6HR MIN TEMP:  68; 6HR MAX TEMP:  75; 6HR PCP: TRACE;

K.C. DOWNTOWN  CLOUDY    78  66  66 S17G23    29.95F
6HR MIN TEMP:  70; 6HR MAX TEMP:  78;

LEES SUMMIT    CLOUDY    75  65  70 S14G22    29.98F
6HR MIN TEMP:  68; 6HR MAX TEMP:  75;

OLATHE - IXD   CLOUDY    72  66  81 S17G26    29.96F
6HR MIN TEMP:  68; 6HR MAX TEMP:  72; 6HR PCP:  0.02;

OLATHE - OJC   CLOUDY    72  65  78 S14G21    29.96F
6HR MIN TEMP:  67; 6HR MAX TEMP:  72; 6HR PCP: TRACE;

LAWRENCE       PTSUNNY   78  67  68 S14G25    29.93F

$$

MOZ001>008-011>017-020>025-030>033-038>040-044>046-053-054-281900-
...NORTHERN AND CENTRAL MISSOURI...

CITY           SKY/WX    TMP DP  RH WIND       PRES   REMARKS
ST. JOSEPH     PTSUNNY   77  68  73 S17       29.91F
6HR MIN TEMP:  69; 6HR MAX TEMP:  77; 6HR PCP:  0.02;

MOSBY          CLOUDY    73  64  73 S9        29.96F
WARRENSBURG    CLOUDY    77  63  61 S12       30.00F
WHITEMAN AFB   PTSUNNY   78  65  64 SW15      30.00F
6HR MIN TEMP:  65; 6HR MAX TEMP:  78;

CLINTON          N/A     79  66  65 S9        30.02F
SEDALIA        CLOUDY    78  64  61 S10       30.03F
6HR MIN TEMP:  65; 6HR MAX TEMP:  79;

WARSAW         NOT AVBL
CHILLICOTHE      N/A     74  65  73 S9        29.98F
6HR MIN TEMP:  66; 6HR MAX TEMP:  74;

KIRKSVILLE     CLOUDY    71  61  70 S15       30.02F
6HR MIN TEMP:  62; 6HR MAX TEMP:  71;


$$

MOZ041-047>049-056>058-063>065-088>090-097-281900-
...EASTERN AND SOUTHERN MISSOURI...

CITY           SKY/WX    TMP DP  RH WIND       PRES   REMARKS
ST. LOUIS INTL CLOUDY    80  58  46 S12       30.09F
6HR MIN TEMP:  64; 6HR MAX TEMP:  81;

SPIRIT OF STL  CLOUDY    78  61  55 VRB6      30.07F
COLUMBIA       CLOUDY    72  63  73 SE9       30.06S
JEFFERSON CITY CLOUDY    77  60  55 SE10      30.04F
ROLLA          PTSUNNY   79  60  52 S14G21    30.07F
OSAGE BEACH    CLOUDY    77  61  57 SE7       30.06F
SPRINGFIELD    CLOUDY    78  62  57 S15       30.06F
BRANSON        PTSUNNY   77  63  61 SE6       30.09F
JOPLIN         CLOUDY    74  64  71 S10       30.03F
WEST PLAINS    SUNNY     77  58  51 SE8       30.11F

$$

IAZ060-094-KSZ022-034>040-054-083-096-NEZ052-066-093-281900-
...KANSAS...SOUTHEAST NEBRASKA AND IOWA...

CITY           SKY/WX    TMP DP  RH WIND       PRES   REMARKS
TOPEKA         PTSUNNY   82  68  62 S10G17    29.91F
6HR MIN TEMP:  69; 6HR MAX TEMP:  82; 6HR PCP:  0.09;

MANHATTAN      PTSUNNY   85  70  60 SW13G22   29.87F
EMPORIA        SUNNY     79  67  66 S23       29.93F
CHANUTE        CLOUDY    70  65  84 S17       29.99F
WICHITA        MOSUNNY   84  68  58 S15       29.93F
OMAHA          CLOUDY    75  70  84 S9        29.84F FOG
LINCOLN        CLOUDY    77  68  73 W6        29.87S
FALLS CITY     MOSUNNY   82  69  64 S18       29.86F
LAMONI         PTSUNNY   77  67  71 S16G23    29.93F
DES MOINES     CLOUDY    68  64  87 SE15      29.90F

$$



USA.gov is the U.S. government's official web portal to all federal, state and local government web resources and services.